TCISK LGMK-EGLC

Flight info

Callsign TCISK
Flight time 3h 5m
Altitude 38000
Route VARIX DCT KEA DCT KOR DCT YNN DCT TUMBO DCT RODON DCT VAKSU DCT ZDA DCT NAKIT DCT BABAG DCT SOTOV DCT UTABA DCT VABEN DCT DENUT DCT SUMUM
Aircraft C750/M-SBDE3FGHRWXY/S

Departure

Time 2026-04-25 11:47
Airport Mykonos Island National Airport (LGMK)

Arrival

Time 2026-04-25 14:53
Airport London City Airport (EGLC)
Time Latitude Longitude Altitude Speed Heading
2026-04-25 11:29 37.43391 25.34703 404 ft 0 kts 251°
2026-04-25 11:42 37.43393 25.34713 404 ft 2 kts 251°
2026-04-25 11:42 37.43399 25.34733 404 ft 2 kts 251°
2026-04-25 11:43 37.43402 25.34744 404 ft 0 kts 251°
2026-04-25 11:43 37.43401 25.34740 404 ft 1 kts 253°
2026-04-25 11:44 37.43406 25.34737 404 ft 1 kts 333°
2026-04-25 11:44 37.43422 25.34760 404 ft 7 kts 86°
2026-04-25 11:44 37.43395 25.34848 408 ft 14 kts 118°
2026-04-25 11:44 37.43286 25.34925 409 ft 23 kts 161°
2026-04-25 11:45 37.43170 25.34975 409 ft 30 kts 161°
2026-04-25 11:45 37.42874 25.35105 408 ft 30 kts 161°
2026-04-25 11:45 37.42760 25.35140 407 ft 8 kts 202°
2026-04-25 11:45 37.42717 25.35164 406 ft 7 kts 92°
2026-04-25 11:46 37.42744 25.35192 406 ft 4 kts 352°
2026-04-25 11:46 37.42756 25.35188 406 ft 0 kts 343°
2026-04-25 11:46 37.42767 25.35175 407 ft 6 kts 308°
2026-04-25 11:47 37.42836 25.35122 408 ft 25 kts 342°
2026-04-25 11:47 37.43304 25.34915 409 ft 115 kts 341°
2026-04-25 11:47 37.44169 25.34549 723 ft 134 kts 343°
2026-04-25 11:47 37.45065 25.34147 1305 ft 141 kts 338°
2026-04-25 11:48 37.45878 25.33319 1738 ft 162 kts 310°
2026-04-25 11:48 37.46238 25.31917 2203 ft 179 kts 277°
2026-04-25 11:48 37.46232 25.30312 2578 ft 196 kts 265°
2026-04-25 11:48 37.45773 25.28614 2951 ft 211 kts 239°
2026-04-25 11:49 37.44785 25.27169 3356 ft 231 kts 222°
2026-04-25 11:49 37.43611 25.25620 3740 ft 257 kts 225°
2026-04-25 11:49 37.42380 25.23864 4247 ft 275 kts 226°
2026-04-25 11:49 37.41139 25.22041 5215 ft 274 kts 228°
2026-04-25 11:50 37.40140 25.19972 5991 ft 282 kts 244°
2026-04-25 11:50 37.39566 25.17594 6803 ft 286 kts 254°
2026-04-25 11:50 37.39132 25.15142 7623 ft 290 kts 255°
2026-04-25 11:50 37.38616 25.12681 8479 ft 292 kts 251°
2026-04-25 11:51 37.37999 25.10231 9322 ft 296 kts 250°
2026-04-25 11:51 37.37389 25.07740 10069 ft 300 kts 251°
2026-04-25 11:51 37.36799 25.05146 10315 ft 321 kts 253°
2026-04-25 11:51 37.36689 25.02225 10190 ft 353 kts 279°
2026-04-25 11:52 37.37560 24.99263 10305 ft 369 kts 302°
2026-04-25 11:52 37.39043 24.96653 10993 ft 366 kts 308°
2026-04-25 11:52 37.40580 24.94078 11572 ft 370 kts 308°
2026-04-25 11:52 37.42136 24.91477 12170 ft 374 kts 308°
2026-04-25 11:53 37.43696 24.88837 12749 ft 377 kts 307°
2026-04-25 11:53 37.45265 24.86173 13331 ft 381 kts 307°
2026-04-25 11:53 37.46853 24.83487 13886 ft 384 kts 308°
2026-04-25 11:53 37.48434 24.80817 14389 ft 387 kts 308°
2026-04-25 11:54 37.50044 24.78089 14914 ft 389 kts 307°
2026-04-25 11:54 37.51659 24.75345 15428 ft 392 kts 308°
2026-04-25 11:54 37.54933 24.69788 16524 ft 397 kts 308°
2026-04-25 11:55 37.56583 24.66981 17080 ft 401 kts 308°
2026-04-25 11:55 37.58248 24.64148 17649 ft 403 kts 307°
2026-04-25 11:55 37.59916 24.61307 18343 ft 404 kts 307°
2026-04-25 11:55 37.61596 24.58443 18782 ft 409 kts 308°
2026-04-25 11:56 37.63289 24.55555 19339 ft 410 kts 307°
2026-04-25 11:56 37.64986 24.52656 19894 ft 413 kts 307°
2026-04-25 11:56 37.66698 24.49730 20413 ft 416 kts 308°
2026-04-25 11:56 37.68426 24.46775 20951 ft 419 kts 308°
2026-04-25 11:57 37.70161 24.43804 21481 ft 422 kts 308°
2026-04-25 11:57 37.71911 24.40804 21997 ft 426 kts 308°
2026-04-25 11:57 37.73673 24.37782 22526 ft 429 kts 308°
2026-04-25 11:57 37.75445 24.34741 23032 ft 432 kts 308°
2026-04-25 11:58 37.77229 24.31673 23549 ft 435 kts 308°
2026-04-25 11:58 37.79027 24.28581 23998 ft 437 kts 308°
2026-04-25 11:58 37.80833 24.25473 24467 ft 440 kts 308°
2026-04-25 11:58 37.82645 24.22349 24921 ft 442 kts 307°
2026-04-25 11:59 37.84465 24.19210 25363 ft 444 kts 307°
2026-04-25 11:59 37.86296 24.16049 25816 ft 446 kts 307°
2026-04-25 11:59 37.88135 24.12870 26267 ft 448 kts 307°
2026-04-25 12:00 37.91836 24.06464 27153 ft 453 kts 307°
2026-04-25 12:00 37.93704 24.03225 27433 ft 460 kts 308°
2026-04-25 12:00 37.96864 23.97742 28124 ft 466 kts 308°
2026-04-25 12:01 37.98766 23.94435 28756 ft 464 kts 307°
2026-04-25 12:01 38.00677 23.91107 29219 ft 468 kts 307°
2026-04-25 12:01 38.02601 23.87759 29693 ft 471 kts 308°
2026-04-25 12:01 38.04552 23.84363 29836 ft 480 kts 308°
2026-04-25 12:02 38.08470 23.77517 30649 ft 483 kts 308°
2026-04-25 12:02 38.10445 23.74062 31047 ft 484 kts 308°
2026-04-25 12:02 38.12422 23.70602 31534 ft 484 kts 309°
2026-04-25 12:03 38.14394 23.67147 32012 ft 483 kts 309°
2026-04-25 12:03 38.16365 23.63687 32491 ft 483 kts 309°
2026-04-25 12:03 38.18333 23.60233 32966 ft 483 kts 309°
2026-04-25 12:03 38.20298 23.56778 33467 ft 482 kts 309°
2026-04-25 12:04 38.22262 23.53322 33972 ft 482 kts 309°
2026-04-25 12:04 38.24218 23.49876 34435 ft 481 kts 309°
2026-04-25 12:04 38.26169 23.46435 34955 ft 478 kts 309°
2026-04-25 12:04 38.28103 23.43020 35493 ft 475 kts 309°
2026-04-25 12:05 38.30033 23.39609 35999 ft 473 kts 309°
2026-04-25 12:05 38.31950 23.36219 36525 ft 471 kts 308°
2026-04-25 12:05 38.33857 23.32842 37070 ft 468 kts 308°
2026-04-25 12:05 38.35752 23.29482 37621 ft 466 kts 308°
2026-04-25 12:06 38.37634 23.26143 38033 ft 465 kts 308°
2026-04-25 12:06 38.39545 23.22753 38018 ft 475 kts 308°
2026-04-25 12:06 38.43471 23.15766 38025 ft 494 kts 308°
2026-04-25 12:07 38.47531 23.08523 38033 ft 510 kts 307°
2026-04-25 12:07 38.51711 23.01058 38030 ft 523 kts 308°
2026-04-25 12:08 38.55936 22.93484 38033 ft 524 kts 308°
2026-04-25 12:08 38.60171 22.85882 38031 ft 524 kts 307°
2026-04-25 12:09 38.64357 22.78346 38024 ft 523 kts 307°
2026-04-25 12:09 38.68549 22.70785 38037 ft 521 kts 307°
2026-04-25 12:10 38.70629 22.67026 38726 ft 508 kts 307°
2026-04-25 12:10 38.72627 22.63406 39669 ft 491 kts 307°
2026-04-25 12:10 38.74584 22.59864 40040 ft 487 kts 307°
2026-04-25 12:10 38.76558 22.56293 40033 ft 495 kts 307°
2026-04-25 12:11 38.80579 22.48987 40036 ft 508 kts 307°
2026-04-25 12:11 38.84684 22.41513 40043 ft 515 kts 307°
2026-04-25 12:12 38.88138 22.35215 40051 ft 515 kts 307°
2026-04-25 12:12 38.92923 22.26465 40047 ft 515 kts 307°
2026-04-25 12:13 38.97047 22.18907 40040 ft 517 kts 306°
2026-04-25 12:13 39.01169 22.11330 40031 ft 517 kts 307°
2026-04-25 12:14 39.05280 22.03763 40031 ft 516 kts 306°
2026-04-25 12:14 39.09387 21.96176 40032 ft 516 kts 306°
2026-04-25 12:15 39.13493 21.88583 40030 ft 517 kts 306°
2026-04-25 12:15 39.17588 21.80984 40030 ft 516 kts 307°
2026-04-25 12:16 39.21690 21.73359 40020 ft 518 kts 306°
2026-04-25 12:16 39.25798 21.65704 40019 ft 519 kts 306°
2026-04-25 12:17 39.29881 21.58073 40120 ft 511 kts 306°
2026-04-25 12:17 39.31868 21.54353 40831 ft 497 kts 306°
2026-04-25 12:17 39.33825 21.50688 41102 ft 495 kts 306°
2026-04-25 12:18 39.35779 21.47026 41302 ft 495 kts 306°
2026-04-25 12:18 39.37703 21.43413 41542 ft 494 kts 306°
2026-04-25 12:18 39.39648 21.39755 41792 ft 494 kts 306°
2026-04-25 12:18 39.41588 21.36104 42063 ft 492 kts 305°
2026-04-25 12:19 39.44833 21.29987 42487 ft 491 kts 305°
2026-04-25 12:19 39.47388 21.25162 42839 ft 490 kts 305°
2026-04-25 12:19 39.49292 21.21562 43023 ft 484 kts 305°
2026-04-25 12:20 39.51204 21.17943 43012 ft 489 kts 305°
2026-04-25 12:20 39.55077 21.10600 43008 ft 499 kts 305°
2026-04-25 12:21 39.59049 21.03049 43027 ft 508 kts 305°
2026-04-25 12:21 39.63050 20.95427 43028 ft 512 kts 305°
2026-04-25 12:22 39.67034 20.87819 43032 ft 512 kts 305°
2026-04-25 12:22 39.71532 20.80680 43004 ft 512 kts 318°
2026-04-25 12:23 39.77253 20.75174 43035 ft 512 kts 327°
2026-04-25 12:23 39.83096 20.69864 43023 ft 513 kts 323°
2026-04-25 12:24 39.88790 20.64278 43009 ft 512 kts 325°
2026-04-25 12:24 39.94600 20.58900 42989 ft 512 kts 324°
2026-04-25 12:25 40.00314 20.53354 42985 ft 512 kts 324°
2026-04-25 12:25 40.06090 20.47912 42985 ft 512 kts 324°
2026-04-25 12:26 40.11805 20.42379 42981 ft 510 kts 324°
2026-04-25 12:26 40.17529 20.36882 42987 ft 510 kts 324°
2026-04-25 12:27 40.23238 20.31359 42986 ft 511 kts 324°
2026-04-25 12:27 40.28952 20.25830 42983 ft 510 kts 324°
2026-04-25 12:28 40.34653 20.20302 42986 ft 510 kts 324°
2026-04-25 12:28 40.40347 20.14764 42987 ft 509 kts 324°
2026-04-25 12:29 40.46021 20.09239 42988 ft 507 kts 324°
2026-04-25 12:29 40.51666 20.03726 42990 ft 506 kts 324°
2026-04-25 12:30 40.57324 19.98192 42999 ft 506 kts 324°
2026-04-25 12:30 40.62964 19.92662 43002 ft 504 kts 324°
2026-04-25 12:31 40.68579 19.87145 42997 ft 503 kts 324°
2026-04-25 12:31 40.74180 19.81629 42998 ft 503 kts 323°
2026-04-25 12:32 40.79788 19.76095 43004 ft 502 kts 323°
2026-04-25 12:32 40.85395 19.70550 43001 ft 507 kts 323°
2026-04-25 12:33 40.90999 19.64995 43023 ft 505 kts 323°
2026-04-25 12:33 40.96632 19.59400 43018 ft 503 kts 323°
2026-04-25 12:34 41.02172 19.53886 43020 ft 503 kts 323°
2026-04-25 12:34 41.07764 19.48307 43026 ft 504 kts 323°
2026-04-25 12:35 41.13350 19.42723 43025 ft 504 kts 323°
2026-04-25 12:35 41.18975 19.37087 43033 ft 509 kts 323°
2026-04-25 12:36 41.24609 19.31429 43035 ft 507 kts 323°
2026-04-25 12:36 41.30239 19.25763 43039 ft 507 kts 323°
2026-04-25 12:37 41.35861 19.20093 43035 ft 508 kts 323°
2026-04-25 12:37 41.41493 19.14399 43038 ft 507 kts 323°
2026-04-25 12:38 41.47109 19.08708 43035 ft 509 kts 323°
2026-04-25 12:38 41.52723 19.02966 43035 ft 509 kts 322°
2026-04-25 12:39 41.58340 18.97222 43035 ft 509 kts 322°
2026-04-25 12:39 41.63952 18.91463 43036 ft 509 kts 322°
2026-04-25 12:40 41.69551 18.85708 43041 ft 507 kts 322°
2026-04-25 12:40 41.75137 18.79951 43040 ft 507 kts 322°
2026-04-25 12:41 41.80727 18.74179 43037 ft 507 kts 322°
2026-04-25 12:41 41.86313 18.68397 43040 ft 507 kts 322°
2026-04-25 12:42 41.91890 18.62611 43043 ft 505 kts 322°
2026-04-25 12:42 41.97456 18.56823 43046 ft 506 kts 322°
2026-04-25 12:43 42.02842 18.50741 43040 ft 505 kts 314°
2026-04-25 12:43 42.09983 18.40280 43046 ft 506 kts 314°
2026-04-25 12:44 42.14817 18.33388 43050 ft 506 kts 313°
2026-04-25 12:45 42.21957 18.22978 43050 ft 504 kts 313°
2026-04-25 12:45 42.29100 18.12560 43048 ft 504 kts 313°
2026-04-25 12:46 42.33834 18.05661 43046 ft 504 kts 313°
2026-04-25 12:46 42.38586 17.98690 43045 ft 504 kts 313°
2026-04-25 12:47 42.43333 17.91726 43054 ft 503 kts 313°
2026-04-25 12:47 42.48071 17.84750 43055 ft 503 kts 313°
2026-04-25 12:48 42.52036 17.78902 43051 ft 503 kts 313°
2026-04-25 12:48 42.56765 17.71910 43046 ft 503 kts 313°
2026-04-25 12:49 42.61487 17.64913 43050 ft 503 kts 313°
2026-04-25 12:49 42.66207 17.57901 43052 ft 503 kts 312°
2026-04-25 12:50 42.70906 17.50904 43050 ft 501 kts 312°
2026-04-25 12:50 42.75600 17.43897 43050 ft 501 kts 312°
2026-04-25 12:51 42.80259 17.36925 43044 ft 502 kts 312°
2026-04-25 12:51 42.84955 17.29882 43044 ft 502 kts 312°
2026-04-25 12:52 42.89642 17.22834 43047 ft 502 kts 312°
2026-04-25 12:52 42.94322 17.15780 43050 ft 500 kts 312°
2026-04-25 12:53 42.98990 17.08726 43046 ft 501 kts 312°
2026-04-25 12:53 43.03659 17.01654 43039 ft 502 kts 312°
2026-04-25 12:54 43.08333 16.94557 43041 ft 502 kts 312°
2026-04-25 12:54 43.13001 16.87452 43060 ft 502 kts 311°
2026-04-25 12:55 43.16881 16.81532 43066 ft 502 kts 311°
2026-04-25 12:55 43.22308 16.73232 43075 ft 500 kts 311°
2026-04-25 12:56 43.26947 16.66117 43075 ft 502 kts 311°
2026-04-25 12:56 43.31590 16.58979 43075 ft 501 kts 311°
2026-04-25 12:57 43.36195 16.51883 43072 ft 501 kts 311°
2026-04-25 12:57 43.40829 16.44724 43048 ft 501 kts 311°
2026-04-25 12:58 43.45447 16.37573 43051 ft 498 kts 311°
2026-04-25 12:58 43.50042 16.30437 43048 ft 497 kts 311°
2026-04-25 12:59 43.54629 16.23297 43047 ft 499 kts 311°
2026-04-25 12:59 43.59220 16.16134 43049 ft 498 kts 311°
2026-04-25 13:00 43.63037 16.10164 43047 ft 499 kts 311°
2026-04-25 13:00 43.68392 16.01767 43049 ft 497 kts 311°
2026-04-25 13:01 43.72966 15.94577 43047 ft 500 kts 311°
2026-04-25 13:01 43.77552 15.87348 43049 ft 500 kts 311°
2026-04-25 13:02 43.82135 15.80107 43049 ft 500 kts 311°
2026-04-25 13:02 43.86711 15.72857 43049 ft 500 kts 310°
2026-04-25 13:03 43.91284 15.65593 43053 ft 500 kts 310°
2026-04-25 13:03 43.95845 15.58332 43052 ft 499 kts 310°
2026-04-25 13:04 44.00400 15.51061 43051 ft 499 kts 310°
2026-04-25 13:04 44.04951 15.43777 43050 ft 499 kts 310°
2026-04-25 13:05 44.09494 15.36482 43050 ft 499 kts 310°
2026-04-25 13:05 44.13865 15.29047 43044 ft 500 kts 309°
2026-04-25 13:06 44.18274 15.21574 43055 ft 498 kts 308°
2026-04-25 13:06 44.22648 15.14078 43058 ft 498 kts 308°
2026-04-25 13:07 44.27035 15.06586 43063 ft 499 kts 308°
2026-04-25 13:07 44.31411 14.99065 43055 ft 499 kts 308°
2026-04-25 13:08 44.35786 14.91542 43058 ft 499 kts 308°
2026-04-25 13:08 44.40155 14.84001 43059 ft 499 kts 308°
2026-04-25 13:09 44.44515 14.76461 43057 ft 497 kts 308°
2026-04-25 13:09 44.48859 14.68923 43055 ft 498 kts 308°
2026-04-25 13:10 44.53203 14.61370 43051 ft 498 kts 308°
2026-04-25 13:10 44.57540 14.53807 43051 ft 498 kts 308°
2026-04-25 13:11 44.61873 14.46231 43052 ft 498 kts 308°
2026-04-25 13:11 44.66204 14.38639 43052 ft 498 kts 308°
2026-04-25 13:12 44.70522 14.31050 43053 ft 497 kts 307°
2026-04-25 13:12 44.74105 14.24737 43053 ft 497 kts 307°
2026-04-25 13:13 44.79140 14.15842 43051 ft 497 kts 307°
2026-04-25 13:13 44.83447 14.08213 43054 ft 497 kts 307°
2026-04-25 13:14 44.87743 14.00580 43052 ft 497 kts 307°
2026-04-25 13:14 44.92038 13.92930 43058 ft 497 kts 307°
2026-04-25 13:15 44.96316 13.85291 43050 ft 496 kts 307°
2026-04-25 13:15 45.00593 13.77631 43051 ft 497 kts 307°
2026-04-25 13:16 45.04868 13.69955 43054 ft 497 kts 307°
2026-04-25 13:16 45.09134 13.62273 43051 ft 497 kts 307°
2026-04-25 13:17 45.13397 13.54576 43053 ft 497 kts 307°
2026-04-25 13:17 45.17655 13.46869 43059 ft 496 kts 307°
2026-04-25 13:18 45.22122 13.39425 43048 ft 496 kts 310°
2026-04-25 13:18 45.26677 13.32155 43050 ft 496 kts 310°
2026-04-25 13:19 45.31217 13.24787 43055 ft 496 kts 310°
2026-04-25 13:19 45.34274 13.19870 43052 ft 496 kts 310°
2026-04-25 13:20 45.40589 13.10390 43048 ft 497 kts 318°
2026-04-25 13:20 45.45938 13.04140 43059 ft 497 kts 319°
2026-04-25 13:21 45.51225 12.97789 43062 ft 497 kts 318°
2026-04-25 13:21 45.56544 12.91474 43050 ft 497 kts 318°
2026-04-25 13:22 45.61839 12.85124 43052 ft 497 kts 318°
2026-04-25 13:23 45.69788 12.75595 43053 ft 497 kts 318°
2026-04-25 13:23 45.75073 12.69223 43050 ft 497 kts 318°
2026-04-25 13:24 45.80366 12.62839 43043 ft 498 kts 318°
2026-04-25 13:24 45.85656 12.56436 43045 ft 498 kts 318°
2026-04-25 13:25 45.90939 12.50027 43037 ft 497 kts 318°
2026-04-25 13:25 45.96183 12.43647 43037 ft 497 kts 317°
2026-04-25 13:26 46.01459 12.37213 43039 ft 497 kts 317°
2026-04-25 13:26 46.06735 12.30762 43015 ft 497 kts 317°
2026-04-25 13:27 46.12004 12.24303 43035 ft 497 kts 317°
2026-04-25 13:27 46.17273 12.17827 43027 ft 497 kts 317°
2026-04-25 13:28 46.22537 12.11339 43030 ft 498 kts 317°
2026-04-25 13:28 46.27802 12.04836 43023 ft 499 kts 317°
2026-04-25 13:29 46.33069 11.98311 43021 ft 498 kts 317°
2026-04-25 13:29 46.38332 11.91773 43025 ft 498 kts 317°
2026-04-25 13:30 46.46221 11.81943 43020 ft 498 kts 317°
2026-04-25 13:31 46.54104 11.72080 43005 ft 499 kts 317°
2026-04-25 13:31 46.59351 11.65497 42998 ft 498 kts 317°
2026-04-25 13:32 46.64581 11.58911 42999 ft 498 kts 317°
2026-04-25 13:32 46.69815 11.52307 42997 ft 498 kts 317°
2026-04-25 13:33 46.75040 11.45696 43010 ft 497 kts 317°
2026-04-25 13:33 46.80258 11.39076 43019 ft 497 kts 317°
2026-04-25 13:34 46.85454 11.32467 43031 ft 493 kts 317°
2026-04-25 13:34 46.90596 11.25908 43047 ft 493 kts 317°
2026-04-25 13:35 46.95761 11.19300 43061 ft 493 kts 316°
2026-04-25 13:35 47.00921 11.12628 43057 ft 495 kts 316°
2026-04-25 13:36 47.06089 11.05944 43089 ft 496 kts 316°
2026-04-25 13:36 47.10379 11.00381 43075 ft 495 kts 316°
2026-04-25 13:37 47.15530 10.93677 43085 ft 495 kts 316°
2026-04-25 13:37 47.20682 10.86962 43088 ft 494 kts 316°
2026-04-25 13:38 47.25828 10.80229 43078 ft 495 kts 316°
2026-04-25 13:38 47.30972 10.73488 43097 ft 495 kts 316°
2026-04-25 13:39 47.36108 10.66734 43109 ft 496 kts 316°
2026-04-25 13:39 47.41248 10.59959 43111 ft 495 kts 316°
2026-04-25 13:40 47.46384 10.53170 43108 ft 495 kts 316°
2026-04-25 13:40 47.51514 10.46368 43103 ft 495 kts 316°
2026-04-25 13:41 47.56632 10.39567 43111 ft 494 kts 316°
2026-04-25 13:41 47.61698 10.32814 43103 ft 493 kts 316°
2026-04-25 13:42 47.66797 10.26001 43104 ft 493 kts 316°
2026-04-25 13:42 47.71893 10.19171 43104 ft 494 kts 316°
2026-04-25 13:43 47.76986 10.12327 43096 ft 494 kts 316°
2026-04-25 13:43 47.82062 10.05487 43098 ft 491 kts 316°
2026-04-25 13:44 47.87126 9.98645 43104 ft 492 kts 316°
2026-04-25 13:44 47.92193 9.91779 43098 ft 492 kts 316°
2026-04-25 13:45 47.97253 9.84903 43080 ft 492 kts 316°
2026-04-25 13:45 48.02305 9.78021 43088 ft 491 kts 316°
2026-04-25 13:46 48.07341 9.71140 43087 ft 490 kts 316°
2026-04-25 13:46 48.12371 9.64249 43087 ft 490 kts 316°
2026-04-25 13:47 48.17398 9.57342 43087 ft 490 kts 316°
2026-04-25 13:47 48.22418 9.50426 43088 ft 490 kts 316°
2026-04-25 13:48 48.27323 9.43321 43100 ft 489 kts 313°
2026-04-25 13:48 48.31963 9.35885 43099 ft 488 kts 313°
2026-04-25 13:49 48.36634 9.28480 43100 ft 488 kts 313°
2026-04-25 13:49 48.41285 9.21029 43103 ft 488 kts 312°
2026-04-25 13:50 48.45938 9.13583 43093 ft 488 kts 313°
2026-04-25 13:50 48.50580 9.06119 43095 ft 489 kts 312°
2026-04-25 13:51 48.55224 8.98635 43083 ft 489 kts 312°
2026-04-25 13:51 48.59864 8.91137 43081 ft 489 kts 312°
2026-04-25 13:52 48.64498 8.83624 43087 ft 488 kts 312°
2026-04-25 13:52 48.69127 8.76101 43094 ft 488 kts 312°
2026-04-25 13:53 48.73758 8.68549 43107 ft 490 kts 312°
2026-04-25 13:53 48.78358 8.61028 43116 ft 489 kts 312°
2026-04-25 13:54 48.82984 8.53442 43110 ft 490 kts 312°
2026-04-25 13:54 48.87636 8.45792 43108 ft 490 kts 312°
2026-04-25 13:55 48.92248 8.38184 43106 ft 489 kts 312°
2026-04-25 13:55 48.96857 8.30559 43100 ft 489 kts 312°
2026-04-25 13:56 49.01460 8.22922 43115 ft 489 kts 311°
2026-04-25 13:56 49.06000 8.15368 42922 ft 480 kts 311°
2026-04-25 13:56 49.08186 8.11494 42657 ft 485 kts 308°
2026-04-25 13:57 49.10287 8.07465 42335 ft 484 kts 308°
2026-04-25 13:57 49.11695 8.04737 42119 ft 484 kts 308°
2026-04-25 13:57 49.14473 7.99424 41705 ft 483 kts 308°
2026-04-25 13:57 49.16584 7.95421 41294 ft 485 kts 308°
2026-04-25 13:58 49.18687 7.91393 40890 ft 485 kts 308°
2026-04-25 13:58 49.20779 7.87356 40497 ft 484 kts 308°
2026-04-25 13:58 49.22869 7.83331 40121 ft 483 kts 308°
2026-04-25 13:59 49.27065 7.75268 40118 ft 487 kts 308°
2026-04-25 13:59 49.31262 7.67142 40100 ft 487 kts 308°
2026-04-25 14:00 49.35468 7.58995 40098 ft 487 kts 308°
2026-04-25 14:00 49.39673 7.50815 40085 ft 488 kts 308°
2026-04-25 14:01 49.43874 7.42621 40111 ft 488 kts 308°
2026-04-25 14:01 49.48062 7.34427 40112 ft 488 kts 308°
2026-04-25 14:02 49.52257 7.26193 40123 ft 488 kts 308°
2026-04-25 14:02 49.56429 7.17978 40120 ft 487 kts 307°
2026-04-25 14:03 49.60603 7.09735 40121 ft 488 kts 307°
2026-04-25 14:03 49.64770 7.01481 40117 ft 488 kts 307°
2026-04-25 14:04 49.68930 6.93213 40116 ft 487 kts 307°
2026-04-25 14:04 49.73054 6.84992 40109 ft 488 kts 307°
2026-04-25 14:05 49.77203 6.76694 40106 ft 488 kts 307°
2026-04-25 14:05 49.81352 6.68371 40107 ft 488 kts 307°
2026-04-25 14:06 49.85492 6.60039 40105 ft 488 kts 307°
2026-04-25 14:06 49.89628 6.51690 40112 ft 488 kts 307°
2026-04-25 14:07 49.93755 6.43332 40113 ft 488 kts 307°
2026-04-25 14:07 49.97877 6.34957 40115 ft 488 kts 307°
2026-04-25 14:08 50.01996 6.26562 40115 ft 488 kts 307°
2026-04-25 14:08 50.06103 6.18166 40132 ft 487 kts 307°
2026-04-25 14:09 50.10203 6.09756 40139 ft 487 kts 307°
2026-04-25 14:09 50.14296 6.01335 40149 ft 487 kts 306°
2026-04-25 14:10 50.18355 5.92954 40147 ft 487 kts 306°
2026-04-25 14:10 50.22433 5.84510 40156 ft 487 kts 306°
2026-04-25 14:11 50.26505 5.76050 40154 ft 487 kts 306°
2026-04-25 14:11 50.30571 5.67577 40162 ft 486 kts 306°
2026-04-25 14:12 50.34626 5.59098 40164 ft 487 kts 306°
2026-04-25 14:12 50.38675 5.50604 40170 ft 487 kts 306°
2026-04-25 14:13 50.42719 5.42093 40173 ft 486 kts 306°
2026-04-25 14:13 50.46753 5.33576 40175 ft 486 kts 306°
2026-04-25 14:14 50.50782 5.25041 40175 ft 486 kts 306°
2026-04-25 14:14 50.54805 5.16493 40182 ft 486 kts 306°
2026-04-25 14:15 50.58821 5.07930 40176 ft 488 kts 305°
2026-04-25 14:15 50.62840 4.99334 40183 ft 487 kts 305°
2026-04-25 14:16 50.66850 4.90727 40181 ft 487 kts 305°
2026-04-25 14:16 50.70849 4.82116 40190 ft 487 kts 305°
2026-04-25 14:17 50.74851 4.73471 40196 ft 487 kts 305°
2026-04-25 14:17 50.78842 4.64820 40202 ft 489 kts 304°
2026-04-25 14:18 50.82812 4.56186 40191 ft 489 kts 304°
2026-04-25 14:18 50.86811 4.47461 40184 ft 489 kts 304°
2026-04-25 14:19 50.90796 4.38739 40180 ft 489 kts 304°
2026-04-25 14:19 50.94775 4.29998 40182 ft 489 kts 304°
2026-04-25 14:20 50.98745 4.21248 40189 ft 489 kts 304°
2026-04-25 14:20 51.02717 4.12465 40193 ft 489 kts 304°
2026-04-25 14:21 51.06675 4.03684 40195 ft 489 kts 304°
2026-04-25 14:21 51.10627 3.94885 40187 ft 489 kts 304°
2026-04-25 14:22 51.14574 3.86067 40191 ft 488 kts 304°
2026-04-25 14:22 51.18508 3.77251 40192 ft 490 kts 304°
2026-04-25 14:23 51.22457 3.68353 40187 ft 491 kts 303°
2026-04-25 14:23 51.25513 3.58684 40199 ft 489 kts 291°
2026-04-25 14:24 51.28162 3.48678 40212 ft 489 kts 292°
2026-04-25 14:24 51.30384 3.40376 40216 ft 488 kts 292°
2026-04-25 14:25 51.33013 3.30357 40209 ft 491 kts 292°
2026-04-25 14:25 51.34326 3.25400 39727 ft 476 kts 292°
2026-04-25 14:25 51.35592 3.20604 39122 ft 461 kts 291°
2026-04-25 14:25 51.36404 3.17503 38689 ft 452 kts 291°
2026-04-25 14:26 51.38360 3.10009 37718 ft 429 kts 291°
2026-04-25 14:26 51.39505 3.05629 37168 ft 425 kts 291°
2026-04-25 14:26 51.40276 3.02673 36794 ft 427 kts 291°
2026-04-25 14:26 51.41421 2.98267 36229 ft 429 kts 291°
2026-04-25 14:27 51.42569 2.93847 35661 ft 430 kts 291°
2026-04-25 14:27 51.43718 2.89417 35094 ft 431 kts 291°
2026-04-25 14:27 51.44866 2.84976 34526 ft 433 kts 291°
2026-04-25 14:27 51.46021 2.80504 33940 ft 434 kts 291°
2026-04-25 14:28 51.47175 2.76026 33364 ft 435 kts 291°
2026-04-25 14:28 51.48328 2.71541 32788 ft 436 kts 291°
2026-04-25 14:28 51.49482 2.67043 32212 ft 437 kts 291°
2026-04-25 14:28 51.50637 2.62535 31632 ft 437 kts 291°
2026-04-25 14:29 51.51793 2.58012 31057 ft 438 kts 291°
2026-04-25 14:29 51.52951 2.53474 30476 ft 438 kts 291°
2026-04-25 14:29 51.54096 2.48981 29861 ft 432 kts 291°
2026-04-25 14:29 51.55229 2.44520 29302 ft 429 kts 291°
2026-04-25 14:30 51.56353 2.40085 28727 ft 426 kts 291°
2026-04-25 14:30 51.58553 2.31386 27612 ft 421 kts 291°
2026-04-25 14:30 51.59648 2.27041 27073 ft 418 kts 291°
2026-04-25 14:31 51.60734 2.22726 26523 ft 415 kts 291°
2026-04-25 14:31 51.61812 2.18433 25979 ft 412 kts 291°
2026-04-25 14:31 51.62853 2.14159 25431 ft 409 kts 289°
2026-04-25 14:31 51.63356 2.09678 24878 ft 407 kts 273°
2026-04-25 14:32 51.63145 2.05153 24362 ft 405 kts 262°
2026-04-25 14:32 51.62657 2.00689 23841 ft 404 kts 261°
2026-04-25 14:32 51.62168 1.96256 23267 ft 401 kts 261°
2026-04-25 14:32 51.61695 1.91846 22736 ft 398 kts 261°
2026-04-25 14:33 51.61229 1.87478 22211 ft 395 kts 261°
2026-04-25 14:33 51.60756 1.83138 21688 ft 393 kts 261°
2026-04-25 14:33 51.60282 1.78828 21172 ft 390 kts 261°
2026-04-25 14:33 51.59812 1.74536 20658 ft 388 kts 261°
2026-04-25 14:34 51.59345 1.70273 20146 ft 386 kts 261°
2026-04-25 14:34 51.58878 1.66035 19643 ft 384 kts 261°
2026-04-25 14:34 51.58411 1.61822 19137 ft 382 kts 261°
2026-04-25 14:34 51.57945 1.57628 18636 ft 380 kts 261°
2026-04-25 14:35 51.57481 1.53462 18101 ft 377 kts 261°
2026-04-25 14:35 51.57019 1.49325 17603 ft 375 kts 261°
2026-04-25 14:35 51.56558 1.45218 17103 ft 372 kts 261°
2026-04-25 14:35 51.56098 1.41133 16620 ft 370 kts 260°
2026-04-25 14:36 51.55640 1.37074 16136 ft 368 kts 260°
2026-04-25 14:36 51.55185 1.33054 15651 ft 365 kts 260°
2026-04-25 14:36 51.54730 1.29058 15172 ft 362 kts 260°
2026-04-25 14:36 51.54279 1.25098 14696 ft 359 kts 260°
2026-04-25 14:37 51.53829 1.21163 14216 ft 356 kts 260°
2026-04-25 14:37 51.53382 1.17266 13735 ft 354 kts 260°
2026-04-25 14:37 51.52935 1.13386 13259 ft 353 kts 260°
2026-04-25 14:37 51.52489 1.09519 12796 ft 351 kts 260°
2026-04-25 14:38 51.52044 1.05674 12305 ft 350 kts 260°
2026-04-25 14:38 51.51602 1.01875 11671 ft 337 kts 260°
2026-04-25 14:38 51.51184 0.98294 11228 ft 316 kts 260°
2026-04-25 14:38 51.50791 0.94923 10810 ft 299 kts 260°
2026-04-25 14:39 51.50413 0.91694 10425 ft 291 kts 260°
2026-04-25 14:39 51.50043 0.88531 10044 ft 287 kts 260°
2026-04-25 14:39 51.49674 0.85398 9654 ft 285 kts 260°
2026-04-25 14:39 51.49307 0.82288 9281 ft 283 kts 260°
2026-04-25 14:40 51.48947 0.79240 8913 ft 282 kts 260°
2026-04-25 14:40 51.48582 0.76163 8546 ft 280 kts 260°
2026-04-25 14:40 51.48215 0.73070 8171 ft 278 kts 260°
2026-04-25 14:40 51.47853 0.70031 7809 ft 276 kts 260°
2026-04-25 14:41 51.47493 0.67016 7446 ft 274 kts 260°
2026-04-25 14:41 51.47134 0.64017 7083 ft 273 kts 260°
2026-04-25 14:41 51.46781 0.61071 6731 ft 272 kts 260°
2026-04-25 14:41 51.46420 0.58062 6353 ft 270 kts 260°
2026-04-25 14:42 51.46070 0.55153 5997 ft 268 kts 260°
2026-04-25 14:42 51.45831 0.53177 5755 ft 267 kts 260°
2026-04-25 14:42 51.45365 0.49324 5294 ft 265 kts 260°
2026-04-25 14:42 51.45015 0.46427 4937 ft 265 kts 260°
2026-04-25 14:43 51.44668 0.43585 4586 ft 255 kts 259°
2026-04-25 14:43 51.44336 0.40849 4247 ft 246 kts 260°
2026-04-25 14:43 51.44015 0.38210 3926 ft 238 kts 259°
2026-04-25 14:43 51.43701 0.35650 3617 ft 230 kts 259°
2026-04-25 14:44 51.43397 0.33168 3315 ft 224 kts 259°
2026-04-25 14:44 51.43105 0.30750 3024 ft 219 kts 260°
2026-04-25 14:44 51.43100 0.28369 2996 ft 210 kts 274°
2026-04-25 14:44 51.43192 0.25988 2998 ft 216 kts 273°
2026-04-25 14:45 51.43266 0.23565 3001 ft 219 kts 273°
2026-04-25 14:45 51.43343 0.21133 3002 ft 219 kts 273°
2026-04-25 14:45 51.43421 0.18797 3000 ft 199 kts 273°
2026-04-25 14:45 51.43492 0.16631 2890 ft 193 kts 273°
2026-04-25 14:46 51.43562 0.14478 2725 ft 193 kts 273°
2026-04-25 14:46 51.43632 0.12330 2565 ft 192 kts 273°
2026-04-25 14:46 51.43701 0.10196 2396 ft 192 kts 273°
2026-04-25 14:46 51.43769 0.08071 2237 ft 190 kts 273°
2026-04-25 14:47 51.43837 0.05960 2060 ft 190 kts 273°
2026-04-25 14:47 51.43881 0.04560 1991 ft 187 kts 273°
2026-04-25 14:47 51.43968 0.01807 1992 ft 178 kts 273°
2026-04-25 14:47 51.44028 -0.00096 1991 ft 166 kts 273°
2026-04-25 14:48 51.44085 -0.01933 1972 ft 165 kts 273°
2026-04-25 14:48 51.44142 -0.03763 1974 ft 165 kts 273°
2026-04-25 14:48 51.44198 -0.05600 1975 ft 165 kts 273°
2026-04-25 14:48 51.44258 -0.07434 1978 ft 165 kts 274°
2026-04-25 14:49 51.44599 -0.09168 1968 ft 164 kts 301°
2026-04-25 14:49 51.45368 -0.10463 1971 ft 164 kts 326°
2026-04-25 14:49 51.46438 -0.11127 1978 ft 163 kts 347°
2026-04-25 14:49 51.47550 -0.11538 1985 ft 165 kts 346°
2026-04-25 14:50 51.48650 -0.11592 1957 ft 152 kts 12°
2026-04-25 14:50 51.49572 -0.10951 1961 ft 139 kts 34°
2026-04-25 14:50 51.50246 -0.09890 1981 ft 139 kts 50°
2026-04-25 14:50 51.50753 -0.08579 1967 ft 139 kts 69°
2026-04-25 14:51 51.50862 -0.07058 1978 ft 140 kts 91°
2026-04-25 14:51 51.50844 -0.05485 1986 ft 141 kts 91°
2026-04-25 14:51 51.50812 -0.03936 1977 ft 134 kts 91°
2026-04-25 14:51 51.50772 -0.02386 1615 ft 145 kts 92°
2026-04-25 14:52 51.50722 -0.00806 1268 ft 138 kts 92°
2026-04-25 14:52 51.50675 0.00704 917 ft 134 kts 92°
2026-04-25 14:52 51.50628 0.02188 571 ft 133 kts 91°
2026-04-25 14:52 51.50601 0.03190 320 ft 133 kts 91°
2026-04-25 14:53 51.50537 0.05113 24 ft 123 kts 91°
2026-04-25 14:53 51.50507 0.06073 22 ft 39 kts 93°
2026-04-25 14:53 51.50494 0.06299 22 ft 11 kts 117°
2026-04-25 14:53 51.50431 0.06342 22 ft 9 kts 192°
2026-04-25 14:54 51.50416 0.06245 22 ft 13 kts 273°
2026-04-25 14:54 51.50421 0.06066 22 ft 19 kts 273°
2026-04-25 14:54 51.50430 0.05812 22 ft 26 kts 273°
2026-04-25 14:54 51.50441 0.05493 22 ft 27 kts 272°
2026-04-25 14:55 51.50447 0.05228 22 ft 17 kts 272°
2026-04-25 14:55 51.50452 0.05074 22 ft 13 kts 273°
2026-04-25 14:55 51.50458 0.04937 22 ft 12 kts 273°
2026-04-25 14:55 51.50462 0.04812 22 ft 10 kts 273°
2026-04-25 14:56 51.50466 0.04720 22 ft 6 kts 274°
2026-04-25 14:56 51.50468 0.04658 22 ft 0 kts 269°
2026-04-25 14:56 51.50454 0.04647 24 ft 3 kts 187°
2026-04-25 14:56 51.50443 0.04648 32 ft 1 kts 181°
2026-04-25 14:57 51.50439 0.04648 36 ft 0 kts 182°